User: anonymous   Login
Location: Unspecified
(0.0000°N, 0.0000°E)
Time: 16:32:45
(UTC+00:00)
Language:

YUBELEINY 2 - Orbit

View from above orbital plane
View from above orbital plane
View from above satellite
View from above satellite

Ground track
Ground track

The orbit data is extracted from the following two-line orbital elements,

1 38735U 12041C   17204.92593735 +.00000008 +00000-0 -98324-5 0  9991
2 38735 082.4774 301.2772 0015704 309.9892 049.9808 12.42574786226238
Epoch (UTC): 23 July 2017 22:13:20
Eccentricity: 0.0015704
inclination: 82.4774°
perigee height: 1483 km
apogee height: 1508 km
right ascension of ascending node: 301.2772°
argument of perigee: 309.9892°
revolutions per day: 12.42574786
mean anomaly at epoch: 49.9808°
orbit number at epoch: 22623

The dashed part of the orbit path shows where the satellite is in the earth's shadow,  

DLR